Location: Wien
(48.2082°N, 16.3738°E)
Time: 01:46:00
(UTC+02:00)

NOAA 15 - Visible Passes

Search period start: 07 October 2024 00:00
Search period end: 17 October 2024 00:00
Orbit: 795 x 810 km, 98.6° (Epoch: 06 October)

Date Brightness Start Highest point End Pass type
(mag) Time Alt. Az. Time Alt. Az. Time Alt. Az.
07 Oct 4.8 19:40:42 10° S 19:45:55 74° WSW 19:51:13 10° NNW visible
07 Oct 7.6 21:25:29 10° W 21:26:36 11° W 21:27:43 10° WNW visible
08 Oct 4.5 19:14:52 10° SSE 19:20:04 70° ENE 19:25:19 10° N visible
08 Oct 7.2 20:56:47 10° SW 21:00:21 18° W 21:03:56 10° NW visible
09 Oct 4.9 18:49:22 10° SE 18:54:19 44° ENE 18:59:17 10° N visible
09 Oct 6.5 20:29:39 10° SSW 20:34:12 29° W 20:38:47 10° NW visible
10 Oct 5.6 20:03:06 10° S 20:08:09 48° W 20:13:15 10° NNW visible
11 Oct 4.7 19:36:58 10° S 19:42:12 79° WSW 19:47:30 10° NNW visible
11 Oct 7.6 21:21:04 10° WSW 21:22:49 12° W 21:24:36 10° WNW visible
12 Oct 4.6 19:11:11 10° SSE 19:16:21 66° ENE 19:21:35 10° N visible
12 Oct 7.1 20:52:50 10° SW 20:56:35 20° W 21:00:21 10° NW visible
13 Oct 5.0 18:45:44 10° SE 18:50:36 41° ENE 18:55:31 10° N visible
13 Oct 6.3 20:25:48 10° SSW 20:30:26 32° W 20:35:08 10° NNW visible
14 Oct 5.4 19:59:19 10° S 20:04:24 51° W 20:09:33 10° NNW visible
15 Oct 4.6 19:33:12 10° SSE 19:38:27 84° WSW 19:43:46 10° NNW visible
15 Oct 7.5 21:16:48 10° WSW 21:19:01 13° W 21:21:15 10° WNW visible
16 Oct 4.6 19:07:28 10° SSE 19:12:37 61° ENE 19:17:50 10° N visible
16 Oct 7.0 20:48:52 10° SW 20:52:47 21° W 20:56:44 10° NW visible
